EW3016 Weather Reports


Display with metric or nautical units.
time (UTC)temp
F
wind
direction
speed
MPH
gust
MPH
rain 1hr
in
rain 24hr
in
rain mn
in
humidity
%
barometer
mb
20260906230016 69 0.0 1.0 0.00 0.00 0.00 66 1018.4
20260906223016 70 270 1.0 11.0 0.00 0.00 0.00 62 1018.2
20260906220016 72 0.0 4.0 0.00 0.00 0.00 62 1018.3
20260906213036 72 0.0 4.0 0.00 0.00 0.00 62 1018.3
20260906210016 71 0.0 0.0 0.00 0.00 0.00 59 1018.1
20260906203016 72 0.0 0.0 0.00 0.00 0.00 59 1018.0
20260906200019 71 0.0 0.0 0.00 0.00 0.00 60 1017.9
20260906193016 72 270 1.0 9.0 0.00 0.00 0.00 59 1017.9
20260906190016 71 270 1.0 8.0 0.00 0.00 0.00 62 1017.9
20260906183016 71 270 1.0 8.0 0.00 0.00 0.00 60 1018.0
20260906180016 70 270 1.0 7.0 0.00 0.00 0.00 59 1017.9
20260906173016 70 0.0 4.0 0.00 0.00 0.00 62 1018.2
20260906170016 69 0.0 4.0 0.00 0.00 0.00 62 1018.1
20260906163017 69 0.0 7.0 0.00 0.00 0.00 64 1018.3
20260906160016 69 0.0 5.0 0.00 0.00 0.00 70 1018.4
20260906153016 67 0.0 0.0 0.00 0.00 0.00 75 1018.3
20260906150016 65 0.0 3.0 0.00 0.00 0.00 81 1018.1
20260906143016 62 0.0 2.0 0.00 0.00 0.00 88 1017.8
20260906140016 62 0.0 1.0 0.00 0.00 0.00 91 1017.9
20260906133016 60 0.0 2.0 0.00 0.00 0.00 95 1017.6
20260906130015 59 0.0 2.0 0.00 0.00 0.00 96 1017.4
20260906123015 59 0.0 2.0 0.00 0.00 0.00 96 1017.4
20260906120016 59 0.0 2.0 0.00 0.00 0.00 97 1017.3
20260906113016 58 0.0 0.0 0.00 0.00 0.00 96 1017.0
20260906110016 58 0.0 1.0 0.00 0.00 0.00 96 1016.6
20260906103017 58 0.0 1.0 0.00 0.00 0.00 96 1016.3
20260906100038 58 0.0 2.0 0.00 0.00 0.00 96 1016.1
20260906093018 58 0.0 1.0 0.00 0.00 0.00 96 1015.9
20260906090017 58 0.0 2.0 0.00 0.00 0.00 96 1015.8
20260906083017 58 0.0 0.0 0.00 0.00 0.00 96 1015.6
20260906080017 58 0.0 0.0 0.00 0.00 0.00 95 1015.6
20260906073017 59 0.0 0.0 0.00 0.00 0.00 95 1015.6
20260906070017 58 0.0 0.0 0.00 0.00 0.00 95 1015.3
20260906063017 58 0.0 0.0 0.00 0.00 0.00 94 1015.2
20260906060017 58 0.0 0.0 0.00 0.00 0.00 94 1015.2
20260906053039 59 0.0 0.0 0.00 0.00 0.00 94 1015.6
20260906050017 59 0.0 0.0 0.00 0.00 0.00 93 1015.8
20260906043017 60 0.0 0.0 0.00 0.00 0.00 94 1015.7
20260906040017 60 0.0 0.0 0.00 0.00 0.00 93 1015.6
20260906033017 61 0.0 0.0 0.00 0.00 0.00 92 1015.4
20260906030017 61 0.0 0.0 0.00 0.00 0.00 92 1015.4
20260906023016 61 0.0 0.0 0.00 0.00 0.00 91 1015.4
20260906020017 62 0.0 0.0 0.00 0.00 0.00 89 1015.3
20260906013037 62 0.0 0.0 0.00 0.00 0.00 89 1015.0
20260906010016 62 0.0 0.0 0.00 0.00 0.00 88 1014.8
20260906003016 62 0.0 0.0 0.00 0.00 0.00 86 1014.4
20260906000016 63 0.0 1.0 0.00 0.00 0.00 85 1014.3
20260905233017 64 0.0 10.0 0.00 0.00 0.00 85 1014.5